Time,TemperatureF,DewpointF,PressureIn,WindDirection,WindDirectionDegrees,WindSpeedMPH,WindSpeedGustMPH,Humidity,HourlyPrecipIn,Conditions,Clouds,dailyrainin,SoftwareType,DateUTC
2013-01-08 00:00:00,22.8,21.1,29.97,WSW,254,0.0,0.0,93,0.00,,SKC,0.00,VWS V14.01,2013-01-08 06:00:00,
2013-01-08 00:04:00,22.6,20.9,29.97,WSW,254,0.0,0.0,93,0.00,,SKC,0.00,VWS V14.01,2013-01-08 06:04:00,
2013-01-08 00:12:00,22.1,20.4,29.97,WSW,254,0.0,0.0,93,0.00,,SKC,0.00,VWS V14.01,2013-01-08 06:12:00,
2013-01-08 00:16:00,22.0,20.3,29.97,WSW,254,0.0,0.0,93,0.00,,SKC,0.00,VWS V14.01,2013-01-08 06:16:00,
2013-01-08 00:24:00,21.5,19.8,29.97,WSW,254,0.0,0.0,93,0.00,,SKC,0.00,VWS V14.01,2013-01-08 06:24:00,
2013-01-08 00:29:00,21.3,19.6,29.96,WSW,254,0.0,0.0,93,0.00,,SKC,0.00,VWS V14.01,2013-01-08 06:29:00,
2013-01-08 00:30:00,21.3,19.6,29.96,WSW,254,0.0,0.0,93,0.00,,SKC,0.00,VWS V14.01,2013-01-08 06:30:00,
2013-01-08 00:32:00,21.2,19.2,29.96,WSW,254,0.0,0.0,92,0.00,,SKC,0.00,VWS V14.01,2013-01-08 06:32:00,
2013-01-08 00:36:00,21.0,19.0,29.96,WSW,254,0.0,0.0,92,0.00,,SKC,0.00,VWS V14.01,2013-01-08 06:36:00,
2013-01-08 00:44:00,20.6,18.6,29.96,WSW,254,0.0,0.0,92,0.00,,SKC,0.00,VWS V14.01,2013-01-08 06:44:00,
2013-01-08 00:52:00,20.2,18.5,29.96,WSW,254,0.0,0.0,93,0.00,,SKC,0.00,VWS V14.01,2013-01-08 06:52:00,
2013-01-08 00:56:00,19.9,18.0,29.95,WSW,254,0.0,0.0,92,0.00,,SKC,0.00,VWS V14.01,2013-01-08 06:56:00,
2013-01-08 00:59:00,19.7,17.8,29.96,WSW,254,0.0,0.0,92,0.00,,SKC,0.00,VWS V14.01,2013-01-08 06:59:00,
2013-01-08 01:00:00,19.7,17.8,29.96,WSW,254,0.0,0.0,92,0.00,,SKC,0.00,VWS V14.01,2013-01-08 07:00:00,
2013-01-08 01:04:00,19.0,17.1,29.96,North,355,3.0,3.0,92,0.00,,SKC,0.00,VWS V14.01,2013-01-08 07:04:00,
2013-01-08 01:08:00,18.6,16.7,29.96,North,355,3.0,4.0,92,0.00,,SKC,0.00,VWS V14.01,2013-01-08 07:08:00,
2013-01-08 01:12:00,18.4,16.5,29.96,North,355,2.0,4.0,92,0.00,,SKC,0.00,VWS V14.01,2013-01-08 07:12:00,
2013-01-08 01:16:00,18.4,16.5,29.96,North,355,0.0,4.0,92,0.00,,SKC,0.00,VWS V14.01,2013-01-08 07:16:00,
2013-01-08 01:20:00,18.9,17.2,29.96,North,355,0.0,4.0,93,0.00,,SKC,0.00,VWS V14.01,2013-01-08 07:20:00,
2013-01-08 01:24:00,19.5,17.8,29.96,North,355,0.0,4.0,93,0.00,,SKC,0.00,VWS V14.01,2013-01-08 07:24:00,
2013-01-08 01:28:00,19.4,17.7,29.96,North,355,0.0,4.0,93,0.00,,SKC,0.00,VWS V14.01,2013-01-08 07:28:00,
2013-01-08 01:29:00,19.3,17.6,29.96,North,355,0.0,4.0,93,0.00,,SKC,0.00,VWS V14.01,2013-01-08 07:29:00,
2013-01-08 01:30:00,19.3,17.6,29.96,North,355,0.0,4.0,93,0.00,,SKC,0.00,VWS V14.01,2013-01-08 07:30:00,
2013-01-08 01:36:00,19.2,17.5,29.96,North,355,0.0,0.0,93,0.00,,SKC,0.00,VWS V14.01,2013-01-08 07:36:00,
2013-01-08 01:40:00,19.3,17.6,29.96,North,355,0.0,0.0,93,0.00,,SKC,0.00,VWS V14.01,2013-01-08 07:40:00,
2013-01-08 01:44:00,19.3,17.6,29.96,North,355,0.0,0.0,93,0.00,,SKC,0.00,VWS V14.01,2013-01-08 07:44:00,
2013-01-08 01:48:00,19.3,17.6,29.96,North,355,0.0,0.0,93,0.00,,SKC,0.00,VWS V14.01,2013-01-08 07:48:00,
2013-01-08 01:56:00,19.0,17.3,29.95,North,355,0.0,0.0,93,0.00,,SKC,0.00,VWS V14.01,2013-01-08 07:56:00,
2013-01-08 01:59:00,18.7,17.0,29.96,North,355,0.0,0.0,93,0.00,,SKC,0.00,VWS V14.01,2013-01-08 07:59:00,
2013-01-08 02:00:00,18.7,17.0,29.96,North,355,0.0,0.0,93,0.00,,SKC,0.00,VWS V14.01,2013-01-08 08:00:00,
2013-01-08 02:04:00,18.2,16.5,29.96,North,355,0.0,0.0,93,0.00,,SKC,0.00,VWS V14.01,2013-01-08 08:04:00,
2013-01-08 02:08:00,18.2,16.5,29.95,North,355,0.0,0.0,93,0.00,,SKC,0.00,VWS V14.01,2013-01-08 08:08:00,
2013-01-08 02:17:00,18.7,17.0,29.95,North,355,0.0,0.0,93,0.00,,SKC,0.00,VWS V14.01,2013-01-08 08:17:00,
2013-01-08 02:21:00,18.7,17.0,29.95,North,355,0.0,0.0,93,0.00,,SKC,0.00,VWS V14.01,2013-01-08 08:21:00,
2013-01-08 02:25:00,18.5,16.8,29.96,North,355,0.0,0.0,93,0.00,,SKC,0.00,VWS V14.01,2013-01-08 08:25:00,
2013-01-08 02:29:00,18.3,16.6,29.96,North,355,0.0,0.0,93,0.00,,SKC,0.00,VWS V14.01,2013-01-08 08:29:00,
2013-01-08 02:30:00,18.3,16.6,29.96,North,355,0.0,0.0,93,0.00,,SKC,0.00,VWS V14.01,2013-01-08 08:30:00,
2013-01-08 02:33:00,18.4,16.7,29.96,North,355,0.0,0.0,93,0.00,,SKC,0.00,VWS V14.01,2013-01-08 08:33:00,
2013-01-08 02:37:00,18.4,16.7,29.96,North,355,0.0,0.0,93,0.00,,SKC,0.00,VWS V14.01,2013-01-08 08:37:00,
2013-01-08 02:41:00,18.4,16.7,29.95,North,355,0.0,0.0,93,0.00,,SKC,0.00,VWS V14.01,2013-01-08 08:41:00,
2013-01-08 02:45:00,18.4,16.7,29.95,North,355,0.0,0.0,93,0.00,,SKC,0.00,VWS V14.01,2013-01-08 08:45:00,
2013-01-08 02:53:00,18.4,16.7,29.95,North,355,0.0,0.0,93,0.00,,SKC,0.00,VWS V14.01,2013-01-08 08:53:00,
2013-01-08 02:57:00,18.2,16.5,29.95,North,355,0.0,0.0,93,0.00,,SKC,0.00,VWS V14.01,2013-01-08 08:57:00,
2013-01-08 02:59:00,18.2,16.5,29.95,North,355,0.0,0.0,93,0.00,,SKC,0.00,VWS V14.01,2013-01-08 08:59:00,
2013-01-08 03:00:00,18.2,16.5,29.95,North,355,0.0,0.0,93,0.00,,SKC,0.00,VWS V14.01,2013-01-08 09:00:00,
2013-01-08 03:05:00,18.3,16.6,29.95,North,355,0.0,0.0,93,0.00,,SKC,0.00,VWS V14.01,2013-01-08 09:05:00,
2013-01-08 03:13:00,18.1,16.4,29.95,North,355,0.0,0.0,93,0.00,,SKC,0.00,VWS V14.01,2013-01-08 09:13:00,
2013-01-08 03:17:00,18.1,16.4,29.95,North,355,0.0,0.0,93,0.00,,SKC,0.00,VWS V14.01,2013-01-08 09:17:00,
2013-01-08 03:21:00,18.0,16.3,29.94,North,355,0.0,0.0,93,0.00,,SKC,0.00,VWS V14.01,2013-01-08 09:21:00,
2013-01-08 03:25:00,17.9,16.2,29.94,North,355,0.0,0.0,93,0.00,,SKC,0.00,VWS V14.01,2013-01-08 09:25:00,
2013-01-08 03:29:00,17.9,16.2,29.94,North,355,0.0,0.0,93,0.00,,SKC,0.00,VWS V14.01,2013-01-08 09:29:00,
2013-01-08 03:30:00,17.9,16.2,29.94,North,355,0.0,0.0,93,0.00,,SKC,0.00,VWS V14.01,2013-01-08 09:30:00,
2013-01-08 03:33:00,17.9,16.2,29.94,North,355,0.0,0.0,93,0.00,,SKC,0.00,VWS V14.01,2013-01-08 09:33:00,
2013-01-08 03:41:00,17.8,16.1,29.94,North,355,0.0,0.0,93,0.00,,SKC,0.00,VWS V14.01,2013-01-08 09:41:00,
2013-01-08 03:45:00,17.7,16.0,29.94,North,355,0.0,0.0,93,0.00,,SKC,0.00,VWS V14.01,2013-01-08 09:45:00,
2013-01-08 03:49:00,17.5,15.8,29.94,North,355,0.0,0.0,93,0.00,,SKC,0.00,VWS V14.01,2013-01-08 09:49:00,
2013-01-08 03:53:00,17.4,15.7,29.94,North,355,0.0,0.0,93,0.00,,SKC,0.00,VWS V14.01,2013-01-08 09:53:00,
2013-01-08 03:57:00,17.3,15.6,29.94,North,355,0.0,0.0,93,0.00,,SKC,0.00,VWS V14.01,2013-01-08 09:57:00,
2013-01-08 03:59:00,17.4,15.7,29.94,North,355,0.0,0.0,93,0.00,,SKC,0.00,VWS V14.01,2013-01-08 09:59:00,
2013-01-08 04:00:00,17.4,15.7,29.94,North,355,0.0,0.0,93,0.00,,SKC,0.00,VWS V14.01,2013-01-08 10:00:00,
2013-01-08 04:05:00,17.4,15.7,29.93,North,355,0.0,0.0,93,0.00,,SKC,0.00,VWS V14.01,2013-01-08 10:05:00,
2013-01-08 04:09:00,17.3,15.6,29.92,North,355,0.0,0.0,93,0.00,,SKC,0.00,VWS V14.01,2013-01-08 10:09:00,
2013-01-08 04:13:00,17.2,15.5,29.92,North,355,0.0,0.0,93,0.00,,SKC,0.00,VWS V14.01,2013-01-08 10:13:00,
2013-01-08 04:17:00,17.0,15.3,29.92,North,355,0.0,0.0,93,0.00,,SKC,0.00,VWS V14.01,2013-01-08 10:17:00,
2013-01-08 04:25:00,16.3,14.4,29.92,SSW,198,0.0,0.0,92,0.00,,SKC,0.00,VWS V14.01,2013-01-08 10:25:00,
2013-01-08 04:29:00,16.0,14.1,29.92,SSW,198,0.0,0.0,92,0.00,,SKC,0.00,VWS V14.01,2013-01-08 10:29:00,
2013-01-08 04:30:00,15.9,14.0,29.92,SSW,198,0.0,0.0,92,0.00,,SKC,0.00,VWS V14.01,2013-01-08 10:30:00,
2013-01-08 04:33:00,16.0,14.1,29.92,SSW,198,0.0,0.0,92,0.00,,SKC,0.00,VWS V14.01,2013-01-08 10:33:00,
2013-01-08 04:41:00,16.7,14.8,29.92,SSW,198,0.0,0.0,92,0.00,,SKC,0.00,VWS V14.01,2013-01-08 10:41:00,
2013-01-08 04:45:00,17.3,15.6,29.91,SSW,198,0.0,0.0,93,0.00,,SKC,0.00,VWS V14.01,2013-01-08 10:45:00,
2013-01-08 04:49:00,17.5,15.8,29.91,SSW,198,0.0,0.0,93,0.00,,SKC,0.00,VWS V14.01,2013-01-08 10:49:00,
2013-01-08 04:57:00,17.7,15.8,29.91,SSW,198,0.0,0.0,92,0.00,,SKC,0.00,VWS V14.01,2013-01-08 10:57:00,
2013-01-08 04:59:00,17.9,16.0,29.91,SSW,198,0.0,0.0,92,0.00,,SKC,0.00,VWS V14.01,2013-01-08 10:59:00,
2013-01-08 05:00:00,17.9,16.0,29.91,SSW,198,0.0,0.0,92,0.00,,SKC,0.00,VWS V14.01,2013-01-08 11:00:00,
2013-01-08 05:05:00,18.7,17.0,29.91,SSW,198,0.0,0.0,93,0.00,,SKC,0.00,VWS V14.01,2013-01-08 11:05:00,
2013-01-08 05:13:00,19.7,18.0,29.91,SSW,198,0.0,0.0,93,0.00,,SKC,0.00,VWS V14.01,2013-01-08 11:13:00,
2013-01-08 05:17:00,20.1,18.4,29.91,SSW,198,0.0,0.0,93,0.00,,SKC,0.00,VWS V14.01,2013-01-08 11:17:00,
2013-01-08 05:21:00,20.6,18.9,29.91,SSW,198,0.0,0.0,93,0.00,,SKC,0.00,VWS V14.01,2013-01-08 11:21:00,
2013-01-08 05:25:00,20.9,19.2,29.91,SSW,198,0.0,0.0,93,0.00,,SKC,0.00,VWS V14.01,2013-01-08 11:25:00,
2013-01-08 05:29:00,21.0,19.3,29.91,SSW,198,0.0,0.0,93,0.00,,SKC,0.00,VWS V14.01,2013-01-08 11:29:00,
2013-01-08 05:30:00,20.9,19.2,29.91,SSW,198,0.0,0.0,93,0.00,,SKC,0.00,VWS V14.01,2013-01-08 11:30:00,
2013-01-08 05:33:00,20.9,19.2,29.91,SSW,198,0.0,0.0,93,0.00,,SKC,0.00,VWS V14.01,2013-01-08 11:33:00,
2013-01-08 05:37:00,21.1,19.4,29.91,SSW,198,0.0,0.0,93,0.00,,SKC,0.00,VWS V14.01,2013-01-08 11:37:00,
2013-01-08 05:41:00,21.0,19.3,29.91,SSW,198,0.0,0.0,93,0.00,,SKC,0.00,VWS V14.01,2013-01-08 11:41:00,
2013-01-08 05:45:00,20.8,19.1,29.91,SSW,198,0.0,0.0,93,0.00,,SKC,0.00,VWS V14.01,2013-01-08 11:45:00,
2013-01-08 05:49:00,20.6,18.9,29.91,SSW,198,0.0,0.0,93,0.00,,SKC,0.00,VWS V14.01,2013-01-08 11:49:00,
2013-01-08 05:53:00,20.4,18.5,29.91,SSW,198,0.0,0.0,92,0.00,,SKC,0.00,VWS V14.01,2013-01-08 11:53:00,
2013-01-08 05:59:00,19.8,17.9,29.91,SSW,198,0.0,0.0,92,0.00,,SKC,0.00,VWS V14.01,2013-01-08 11:59:00,
2013-01-08 06:00:00,19.8,17.9,29.91,SSW,198,0.0,0.0,92,0.00,,SKC,0.00,VWS V14.01,2013-01-08 12:00:00,
2013-01-08 06:01:00,19.8,17.9,29.91,SSW,198,0.0,0.0,92,0.00,,SKC,0.00,VWS V14.01,2013-01-08 12:01:00,
2013-01-08 06:05:00,19.7,17.8,29.91,SSW,198,0.0,0.0,92,0.00,,SKC,0.00,VWS V14.01,2013-01-08 12:05:00,
2013-01-08 06:09:00,19.7,17.8,29.91,SSW,198,0.0,0.0,92,0.00,,SKC,0.00,VWS V14.01,2013-01-08 12:09:00,
2013-01-08 06:13:00,19.7,17.8,29.91,SSW,198,0.0,0.0,92,0.00,,SKC,0.00,VWS V14.01,2013-01-08 12:13:00,
2013-01-08 06:21:00,19.1,17.2,29.91,SSW,198,0.0,0.0,92,0.00,,SKC,0.00,VWS V14.01,2013-01-08 12:21:00,
2013-01-08 06:25:00,18.9,17.0,29.91,SSW,198,0.0,0.0,92,0.00,,SKC,0.00,VWS V14.01,2013-01-08 12:25:00,
2013-01-08 06:29:00,18.9,17.0,29.91,SSW,198,0.0,0.0,92,0.00,,SKC,0.00,VWS V14.01,2013-01-08 12:29:00,
2013-01-08 06:30:00,18.9,17.0,29.91,SSW,198,0.0,0.0,92,0.00,,SKC,0.00,VWS V14.01,2013-01-08 12:30:00,
2013-01-08 06:33:00,19.0,17.1,29.91,SSW,198,0.0,0.0,92,0.00,,SKC,0.00,VWS V14.01,2013-01-08 12:33:00,
2013-01-08 06:41:00,19.7,18.0,29.92,SSW,198,0.0,0.0,93,0.00,,SKC,0.00,VWS V14.01,2013-01-08 12:41:00,
2013-01-08 06:45:00,20.0,18.3,29.92,SSW,198,0.0,0.0,93,0.00,,SKC,0.00,VWS V14.01,2013-01-08 12:45:00,
2013-01-08 06:49:00,20.2,18.5,29.92,SSW,198,0.0,0.0,93,0.00,,SKC,0.00,VWS V14.01,2013-01-08 12:49:00,
2013-01-08 06:57:00,19.4,17.5,29.92,SSW,198,0.0,0.0,92,0.00,,SKC,0.00,VWS V14.01,2013-01-08 12:57:00,
2013-01-08 06:59:00,19.2,17.3,29.92,SSW,198,0.0,0.0,92,0.00,,SKC,0.00,VWS V14.01,2013-01-08 12:59:00,
2013-01-08 07:00:00,19.2,17.3,29.92,SSW,198,0.0,0.0,92,0.00,,SKC,0.00,VWS V14.01,2013-01-08 13:00:00,
2013-01-08 07:05:00,19.3,17.4,29.92,SSW,198,0.0,0.0,92,0.00,,SKC,0.00,VWS V14.01,2013-01-08 13:05:00,
2013-01-08 07:09:00,20.0,18.3,29.92,SSW,198,0.0,0.0,93,0.00,,SKC,0.00,VWS V14.01,2013-01-08 13:09:00,
2013-01-08 07:13:00,20.5,18.8,29.92,SSW,198,0.0,0.0,93,0.00,,SKC,0.00,VWS V14.01,2013-01-08 13:13:00,
2013-01-08 07:21:00,20.5,18.8,29.92,SSW,198,0.0,0.0,93,0.00,,SKC,0.00,VWS V14.01,2013-01-08 13:21:00,
2013-01-08 07:25:00,20.1,18.1,29.92,SSW,198,0.0,0.0,92,0.00,,SKC,0.00,VWS V14.01,2013-01-08 13:25:00,
2013-01-08 07:29:00,20.0,18.0,29.92,SSW,198,0.0,0.0,92,0.00,,SKC,0.00,VWS V14.01,2013-01-08 13:29:00,
2013-01-08 07:30:00,20.0,18.0,29.92,SSW,198,0.0,0.0,92,0.00,,SKC,0.00,VWS V14.01,2013-01-08 13:30:00,
2013-01-08 07:37:00,21.3,19.6,29.92,SSW,198,0.0,0.0,93,0.00,,SKC,0.00,VWS V14.01,2013-01-08 13:37:00,
2013-01-08 07:41:00,21.3,19.6,29.92,SSW,198,0.0,0.0,93,0.00,,SKC,0.00,VWS V14.01,2013-01-08 13:41:00,
2013-01-08 07:45:00,19.8,17.9,29.92,SSW,198,0.0,0.0,92,0.00,,SKC,0.00,VWS V14.01,2013-01-08 13:45:00,
2013-01-08 07:49:00,18.4,16.2,29.92,SSW,198,0.0,0.0,91,0.00,,SKC,0.00,VWS V14.01,2013-01-08 13:49:00,
2013-01-08 07:53:00,18.2,16.0,29.92,SSW,198,0.0,0.0,91,0.00,,SKC,0.00,VWS V14.01,2013-01-08 13:53:00,
2013-01-08 07:57:00,18.1,16.2,29.92,SSW,198,0.0,0.0,92,0.00,,SKC,0.00,VWS V14.01,2013-01-08 13:57:00,
2013-01-08 07:59:00,18.0,16.1,29.92,SSW,198,0.0,0.0,92,0.00,,SKC,0.00,VWS V14.01,2013-01-08 13:59:00,
2013-01-08 08:00:00,18.0,16.1,29.92,SSW,198,0.0,0.0,92,0.00,,SKC,0.00,VWS V14.01,2013-01-08 14:00:00,
2013-01-08 08:05:00,17.6,15.4,29.92,SSW,198,0.0,0.0,91,0.00,,SKC,0.00,VWS V14.01,2013-01-08 14:05:00,
2013-01-08 08:13:00,16.9,14.7,29.93,SSW,198,0.0,0.0,91,0.00,,SKC,0.00,VWS V14.01,2013-01-08 14:13:00,
2013-01-08 08:21:00,16.8,14.6,29.93,SSW,198,0.0,0.0,91,0.00,,SKC,0.00,VWS V14.01,2013-01-08 14:21:00,
2013-01-08 08:29:00,17.1,15.2,29.93,SSW,198,0.0,0.0,92,0.00,,SKC,0.00,VWS V14.01,2013-01-08 14:29:00,
2013-01-08 08:30:00,17.1,15.2,29.93,SSW,198,0.0,0.0,92,0.00,,SKC,0.00,VWS V14.01,2013-01-08 14:30:00,
2013-01-08 08:37:00,17.6,15.7,29.94,SSW,198,0.0,0.0,92,0.00,,SKC,0.00,VWS V14.01,2013-01-08 14:37:00,
2013-01-08 08:45:00,17.6,15.7,29.93,SSW,198,0.0,0.0,92,0.00,,SKC,0.00,VWS V14.01,2013-01-08 14:45:00,
2013-01-08 08:49:00,17.1,14.9,29.93,SSW,198,0.0,0.0,91,0.00,,SKC,0.00,VWS V14.01,2013-01-08 14:49:00,
2013-01-08 08:53:00,16.4,14.2,29.93,SSW,198,0.0,0.0,91,0.00,,SKC,0.00,VWS V14.01,2013-01-08 14:53:00,
2013-01-08 08:57:00,16.0,13.6,29.93,SSW,198,0.0,0.0,90,0.00,,SKC,0.00,VWS V14.01,2013-01-08 14:57:00,
2013-01-08 08:59:00,16.0,13.8,29.94,SSW,198,0.0,0.0,91,0.00,,SKC,0.00,VWS V14.01,2013-01-08 14:59:00,
2013-01-08 09:00:00,16.0,13.8,29.94,SSW,198,0.0,0.0,91,0.00,,SKC,0.00,VWS V14.01,2013-01-08 15:00:00,
2013-01-08 09:01:00,16.1,13.9,29.94,SSW,198,0.0,1.0,91,0.00,,SKC,0.00,VWS V14.01,2013-01-08 15:01:00,
2013-01-08 09:05:00,16.4,14.2,29.94,SSW,198,4.0,4.0,91,0.00,,SKC,0.00,VWS V14.01,2013-01-08 15:05:00,
2013-01-08 09:09:00,16.8,14.9,29.94,SSW,198,0.0,4.0,92,0.00,,SKC,0.00,VWS V14.01,2013-01-08 15:09:00,
2013-01-08 09:13:00,17.3,15.4,29.94,SSW,198,1.0,4.0,92,0.00,,SKC,0.00,VWS V14.01,2013-01-08 15:13:00,
2013-01-08 09:21:00,18.4,16.5,29.93,South,187,4.0,4.0,92,0.00,,SKC,0.00,VWS V14.01,2013-01-08 15:21:00,
2013-01-08 09:29:00,18.8,16.9,29.93,South,183,4.0,4.0,92,0.00,,SKC,0.00,VWS V14.01,2013-01-08 15:29:00,
2013-01-08 09:30:00,18.8,16.9,29.93,South,183,4.0,4.0,92,0.00,,SKC,0.00,VWS V14.01,2013-01-08 15:30:00,
2013-01-08 09:33:00,19.0,17.1,29.93,South,184,3.0,5.0,92,0.00,,SKC,0.00,VWS V14.01,2013-01-08 15:33:00,
2013-01-08 09:37:00,19.7,18.0,29.93,South,184,1.0,5.0,93,0.00,,SKC,0.00,VWS V14.01,2013-01-08 15:37:00,
2013-01-08 09:45:00,22.1,20.6,29.93,SW,215,5.0,5.0,94,0.00,,SKC,0.00,VWS V14.01,2013-01-08 15:45:00,
2013-01-08 09:53:00,24.0,22.5,29.94,SSW,213,0.0,5.0,94,0.00,,SKC,0.00,VWS V14.01,2013-01-08 15:53:00,
2013-01-08 09:57:00,23.9,22.4,29.94,SW,217,0.0,5.0,94,0.00,,SKC,0.00,VWS V14.01,2013-01-08 15:57:00,
2013-01-08 09:59:00,23.9,22.4,29.94,SW,217,0.0,5.0,94,0.00,,SKC,0.00,VWS V14.01,2013-01-08 15:59:00,
2013-01-08 10:00:00,23.9,22.4,29.94,SW,217,0.0,5.0,94,0.00,,SKC,0.00,VWS V14.01,2013-01-08 16:00:00,
2013-01-08 10:05:00,24.3,22.8,29.94,SW,234,0.0,3.0,94,0.00,,SKC,0.00,VWS V14.01,2013-01-08 16:05:00,
2013-01-08 10:09:00,24.8,23.3,29.94,West,261,0.0,4.0,94,0.00,,SKC,0.00,VWS V14.01,2013-01-08 16:09:00,
2013-01-08 10:13:00,24.9,23.4,29.94,WNW,289,0.0,4.0,94,0.00,,SKC,0.00,VWS V14.01,2013-01-08 16:13:00,
2013-01-08 10:21:00,25.8,24.3,29.93,West,264,4.0,5.0,94,0.00,,SKC,0.00,VWS V14.01,2013-01-08 16:21:00,
2013-01-08 10:25:00,26.0,24.3,29.93,West,266,2.0,5.0,93,0.00,,SKC,0.00,VWS V14.01,2013-01-08 16:25:00,
2013-01-08 10:29:00,26.0,24.3,29.93,West,259,3.0,5.0,93,0.00,,SKC,0.00,VWS V14.01,2013-01-08 16:29:00,
2013-01-08 10:30:00,26.0,24.3,29.93,West,259,3.0,5.0,93,0.00,,SKC,0.00,VWS V14.01,2013-01-08 16:30:00,
2013-01-08 10:34:00,26.3,24.3,29.93,West,259,2.0,4.0,92,0.00,,SKC,0.00,VWS V14.01,2013-01-08 16:34:00,
2013-01-08 10:38:00,26.8,24.8,29.93,West,259,0.0,4.0,92,0.00,,SKC,0.00,VWS V14.01,2013-01-08 16:38:00,
2013-01-08 10:42:00,27.2,25.2,29.93,WSW,248,3.0,4.0,92,0.00,,SKC,0.00,VWS V14.01,2013-01-08 16:42:00,
2013-01-08 10:50:00,28.0,25.7,29.93,WSW,246,3.0,5.0,91,0.00,,SKC,0.00,VWS V14.01,2013-01-08 16:50:00,
2013-01-08 10:54:00,28.4,26.1,29.92,WSW,258,2.0,5.0,91,0.00,,SKC,0.00,VWS V14.01,2013-01-08 16:54:00,
2013-01-08 10:58:00,28.8,26.2,29.92,WSW,258,2.0,5.0,90,0.00,,SKC,0.00,VWS V14.01,2013-01-08 16:58:00,
2013-01-08 11:00:00,29.0,26.4,29.92,WSW,258,3.0,5.0,90,0.00,,SKC,0.00,VWS V14.01,2013-01-08 17:00:00,
2013-01-08 11:02:00,29.2,26.4,29.92,WSW,258,3.0,4.0,89,0.00,,SKC,0.00,VWS V14.01,2013-01-08 17:02:00,
2013-01-08 11:06:00,29.7,26.9,29.92,WSW,243,3.0,5.0,89,0.00,,SKC,0.00,VWS V14.01,2013-01-08 17:06:00,
2013-01-08 11:14:00,31.0,27.9,29.92,WSW,255,3.0,5.0,88,0.00,,SKC,0.00,VWS V14.01,2013-01-08 17:14:00,
2013-01-08 11:18:00,31.0,27.6,29.92,West,268,3.0,5.0,87,0.00,,SKC,0.00,VWS V14.01,2013-01-08 17:18:00,
2013-01-08 11:22:00,31.0,27.6,29.91,West,268,3.0,5.0,87,0.00,,SKC,0.00,VWS V14.01,2013-01-08 17:22:00,
2013-01-08 11:26:00,31.0,27.3,29.91,West,268,4.0,5.0,86,0.00,,SKC,0.00,VWS V14.01,2013-01-08 17:26:00,
2013-01-08 11:29:00,31.0,27.3,29.91,West,268,3.0,5.0,86,0.00,,SKC,0.00,VWS V14.01,2013-01-08 17:29:00,
2013-01-08 11:30:00,31.0,27.3,29.91,West,268,3.0,5.0,86,0.00,,SKC,0.00,VWS V14.01,2013-01-08 17:30:00,
2013-01-08 11:38:00,31.5,27.8,29.91,West,268,3.0,5.0,86,0.00,,SKC,0.00,VWS V14.01,2013-01-08 17:38:00,
2013-01-08 11:42:00,31.9,28.2,29.91,West,267,2.0,5.0,86,0.00,,SKC,0.00,VWS V14.01,2013-01-08 17:42:00,
2013-01-08 11:50:00,33.5,29.5,29.91,WSW,246,5.0,8.0,85,0.00,,SKC,0.00,VWS V14.01,2013-01-08 17:50:00,
2013-01-08 11:56:00,34.7,30.1,29.91,SW,225,4.0,7.0,83,0.00,,SKC,0.00,VWS V14.01,2013-01-08 17:56:00,
2013-01-08 12:00:00,35.5,30.6,29.90,SSW,205,2.0,5.0,82,0.00,,SKC,0.00,VWS V14.01,2013-01-08 18:00:00,
2013-01-08 12:08:00,36.5,30.9,29.89,SSW,204,10.0,10.0,80,0.00,,SKC,0.00,VWS V14.01,2013-01-08 18:08:00,
2013-01-08 12:16:00,37.9,31.0,29.90,SSW,209,8.0,17.0,76,0.00,,SKC,0.00,VWS V14.01,2013-01-08 18:16:00,
2013-01-08 12:20:00,37.9,31.0,29.90,SSW,199,10.0,17.0,76,0.00,,SKC,0.00,VWS V14.01,2013-01-08 18:20:00,
2013-01-08 12:24:00,37.8,30.9,29.89,SW,215,8.0,17.0,76,0.00,,SKC,0.00,VWS V14.01,2013-01-08 18:24:00,
2013-01-08 12:28:00,37.8,31.2,29.89,SSW,213,7.0,17.0,77,0.00,,SKC,0.00,VWS V14.01,2013-01-08 18:28:00,
2013-01-08 12:29:00,37.8,31.2,29.89,SW,230,4.0,17.0,77,0.00,,SKC,0.00,VWS V14.01,2013-01-08 18:29:00,
2013-01-08 12:36:00,38.3,31.1,29.89,SSW,211,5.0,11.0,75,0.00,,SKC,0.00,VWS V14.01,2013-01-08 18:36:00,
2013-01-08 12:40:00,38.3,31.1,29.89,SSW,207,7.0,11.0,75,0.00,,SKC,0.00,VWS V14.01,2013-01-08 18:40:00,
2013-01-08 12:44:00,38.1,31.2,29.89,SSW,199,6.0,12.0,76,0.00,,SKC,0.00,VWS V14.01,2013-01-08 18:44:00,
2013-01-08 12:48:00,38.0,31.1,29.88,SW,221,4.0,13.0,76,0.00,,SKC,0.00,VWS V14.01,2013-01-08 18:48:00,
2013-01-08 12:52:00,37.9,31.0,29.89,WSW,254,11.0,13.0,76,0.00,,SKC,0.00,VWS V14.01,2013-01-08 18:52:00,
2013-01-08 12:56:00,37.9,31.0,29.89,SSW,205,12.0,13.0,76,0.00,,SKC,0.00,VWS V14.01,2013-01-08 18:56:00,
2013-01-08 12:59:00,37.9,31.0,29.89,SW,225,7.0,13.0,76,0.00,,SKC,0.00,VWS V14.01,2013-01-08 18:59:00,
2013-01-08 13:04:00,38.1,31.2,29.89,SSW,213,5.0,14.0,76,0.00,,SKC,0.00,VWS V14.01,2013-01-08 19:04:00,
2013-01-08 13:08:00,38.2,31.3,29.89,SSW,202,7.0,14.0,76,0.00,,SKC,0.00,VWS V14.01,2013-01-08 19:08:00,
2013-01-08 13:12:00,38.3,31.4,29.89,SW,222,8.0,14.0,76,0.00,,SKC,0.00,VWS V14.01,2013-01-08 19:12:00,
2013-01-08 13:16:00,38.3,31.1,29.89,SSW,201,10.0,15.0,75,0.00,,SKC,0.00,VWS V14.01,2013-01-08 19:16:00,
2013-01-08 13:20:00,38.1,31.2,29.88,WSW,258,5.0,15.0,76,0.00,,SKC,0.00,VWS V14.01,2013-01-08 19:20:00,
2013-01-08 13:25:00,38.6,31.4,29.89,WSW,250,6.0,15.0,75,0.00,,SKC,0.00,VWS V14.01,2013-01-08 19:25:00,
2013-01-08 13:29:00,38.8,31.2,29.88,SW,226,6.0,15.0,74,0.00,,SKC,0.00,VWS V14.01,2013-01-08 19:29:00,
2013-01-08 13:37:00,38.9,31.3,29.89,West,278,6.0,11.0,74,0.00,,SKC,0.00,VWS V14.01,2013-01-08 19:37:00,
2013-01-08 13:41:00,38.7,31.1,29.89,South,174,6.0,11.0,74,0.00,,SKC,0.00,VWS V14.01,2013-01-08 19:41:00,
2013-01-08 13:49:00,38.6,31.4,29.89,SSW,194,7.0,11.0,75,0.00,,SKC,0.00,VWS V14.01,2013-01-08 19:49:00,
2013-01-08 13:53:00,38.3,31.1,29.89,SSW,202,10.0,14.0,75,0.00,,SKC,0.00,VWS V14.01,2013-01-08 19:53:00,
2013-01-08 13:57:00,38.2,31.0,29.89,SSW,206,15.0,15.0,75,0.00,,SKC,0.00,VWS V14.01,2013-01-08 19:57:00,
2013-01-08 13:59:00,38.2,31.0,29.89,SSW,213,6.0,16.0,75,0.00,,SKC,0.00,VWS V14.01,2013-01-08 19:59:00,
2013-01-08 14:01:00,38.2,31.0,29.89,WSW,257,5.0,9.0,75,0.00,,SKC,0.00,VWS V14.01,2013-01-08 20:01:00,
2013-01-08 14:05:00,38.4,31.2,29.90,WSW,242,6.0,10.0,75,0.00,,SKC,0.00,VWS V14.01,2013-01-08 20:05:00,
2013-01-08 14:13:00,38.6,31.0,29.90,SSW,196,5.0,10.0,74,0.00,,SKC,0.00,VWS V14.01,2013-01-08 20:13:00,
2013-01-08 14:17:00,38.6,31.0,29.91,SW,223,6.0,12.0,74,0.00,,SKC,0.00,VWS V14.01,2013-01-08 20:17:00,
2013-01-08 14:25:00,38.6,31.4,29.90,South,172,6.0,12.0,75,0.00,,SKC,0.00,VWS V14.01,2013-01-08 20:25:00,
2013-01-08 14:29:00,38.6,31.4,29.90,SSW,194,4.0,12.0,75,0.00,,SKC,0.00,VWS V14.01,2013-01-08 20:29:00,
2013-01-08 14:33:00,38.7,31.5,29.91,WSW,238,4.0,9.0,75,0.00,,SKC,0.00,VWS V14.01,2013-01-08 20:33:00,
2013-01-08 14:37:00,38.8,31.6,29.91,SSW,207,4.0,9.0,75,0.00,,SKC,0.00,VWS V14.01,2013-01-08 20:37:00,
2013-01-08 14:41:00,38.8,31.6,29.91,WSW,253,6.0,9.0,75,0.00,,SKC,0.00,VWS V14.01,2013-01-08 20:41:00,
2013-01-08 14:45:00,38.8,31.6,29.92,NW,313,4.0,9.0,75,0.00,,SKC,0.00,VWS V14.01,2013-01-08 20:45:00,
2013-01-08 14:49:00,38.6,31.4,29.91,SW,224,6.0,10.0,75,0.00,,SKC,0.00,VWS V14.01,2013-01-08 20:49:00,
2013-01-08 14:53:00,38.3,31.4,29.92,SW,231,8.0,11.0,76,0.00,,SKC,0.00,VWS V14.01,2013-01-08 20:53:00,
2013-01-08 14:59:00,37.9,31.0,29.92,SW,217,5.0,13.0,76,0.00,,SKC,0.00,VWS V14.01,2013-01-08 20:59:00,
2013-01-08 15:05:00,38.2,31.0,29.92,SSW,209,5.0,11.0,75,0.00,,SKC,0.00,VWS V14.01,2013-01-08 21:05:00,
2013-01-08 15:09:00,38.1,30.9,29.92,West,261,8.0,12.0,75,0.00,,SKC,0.00,VWS V14.01,2013-01-08 21:09:00,
2013-01-08 15:13:00,37.8,30.6,29.93,WSW,240,5.0,12.0,75,0.00,,SKC,0.00,VWS V14.01,2013-01-08 21:13:00,
2013-01-08 15:17:00,37.8,30.6,29.93,SSW,206,7.0,12.0,75,0.00,,SKC,0.00,VWS V14.01,2013-01-08 21:17:00,
2013-01-08 15:21:00,37.8,30.6,29.93,SW,232,4.0,12.0,75,0.00,,SKC,0.00,VWS V14.01,2013-01-08 21:21:00,
2013-01-08 15:25:00,37.7,30.5,29.93,West,260,3.0,12.0,75,0.00,,SKC,0.00,VWS V14.01,2013-01-08 21:25:00,
2013-01-08 15:29:00,37.9,30.7,29.94,SW,232,3.0,12.0,75,0.00,,SKC,0.00,VWS V14.01,2013-01-08 21:29:00,
2013-01-08 15:37:00,37.6,30.7,29.94,West,265,6.0,11.0,76,0.00,,SKC,0.00,VWS V14.01,2013-01-08 21:37:00,
2013-01-08 15:45:00,38.0,30.8,29.95,SSW,203,5.0,11.0,75,0.00,,SKC,0.00,VWS V14.01,2013-01-08 21:45:00,
2013-01-08 15:49:00,38.1,30.9,29.96,WSW,244,6.0,11.0,75,0.00,,SKC,0.00,VWS V14.01,2013-01-08 21:49:00,
2013-01-08 15:53:00,37.6,30.7,29.96,WSW,247,8.0,11.0,76,0.00,,SKC,0.00,VWS V14.01,2013-01-08 21:53:00,
2013-01-08 15:57:00,37.4,30.5,29.96,SW,229,6.0,11.0,76,0.00,,SKC,0.00,VWS V14.01,2013-01-08 21:57:00,
2013-01-08 15:59:00,37.2,30.7,29.96,WSW,253,7.0,11.0,77,0.00,,SKC,0.00,VWS V14.01,2013-01-08 21:59:00,
2013-01-08 16:05:00,37.1,30.6,29.97,SSW,209,4.0,10.0,77,0.00,,SKC,0.00,VWS V14.01,2013-01-08 22:05:00,
2013-01-08 16:09:00,37.1,30.6,29.97,SW,225,4.0,10.0,77,0.00,,SKC,0.00,VWS V14.01,2013-01-08 22:09:00,
2013-01-08 16:17:00,36.9,30.4,29.97,SW,235,8.0,10.0,77,0.00,,SKC,0.00,VWS V14.01,2013-01-08 22:17:00,
2013-01-08 16:25:00,36.6,30.4,29.98,SW,230,5.0,10.0,78,0.00,,SKC,0.00,VWS V14.01,2013-01-08 22:25:00,
2013-01-08 16:29:00,36.4,30.2,29.97,SSW,209,5.0,10.0,78,0.00,,SKC,0.00,VWS V14.01,2013-01-08 22:29:00,
2013-01-08 16:37:00,36.2,30.0,29.98,SW,229,5.0,7.0,78,0.00,,SKC,0.00,VWS V14.01,2013-01-08 22:37:00,
2013-01-08 16:45:00,36.0,29.8,29.98,SW,236,6.0,8.0,78,0.00,,SKC,0.00,VWS V14.01,2013-01-08 22:45:00,
2013-01-08 16:49:00,35.6,29.7,29.98,WSW,237,7.0,10.0,79,0.00,,SKC,0.00,VWS V14.01,2013-01-08 22:49:00,
2013-01-08 16:57:00,35.6,29.7,29.98,WSW,245,10.0,14.0,79,0.00,,SKC,0.00,VWS V14.01,2013-01-08 22:57:00,
2013-01-08 16:59:00,35.6,29.4,29.98,SW,216,5.0,14.0,78,0.00,,SKC,0.00,VWS V14.01,2013-01-08 22:59:00,
2013-01-08 17:01:00,35.5,29.6,29.98,South,182,5.0,6.0,79,0.00,,SKC,0.00,VWS V14.01,2013-01-08 23:01:00,
2013-01-08 17:09:00,35.1,29.6,29.98,SW,215,3.0,7.0,80,0.00,,SKC,0.00,VWS V14.01,2013-01-08 23:09:00,
2013-01-08 17:13:00,35.0,29.5,29.99,SW,236,4.0,8.0,80,0.00,,SKC,0.00,VWS V14.01,2013-01-08 23:13:00,
2013-01-08 17:17:00,34.8,29.6,29.98,WSW,254,3.0,8.0,81,0.00,,SKC,0.00,VWS V14.01,2013-01-08 23:17:00,
2013-01-08 17:21:00,34.8,29.6,29.98,WSW,248,0.0,8.0,81,0.00,,SKC,0.00,VWS V14.01,2013-01-08 23:21:00,
2013-01-08 17:29:00,34.6,29.7,29.99,SW,232,3.0,8.0,82,0.00,,SKC,0.00,VWS V14.01,2013-01-08 23:29:00,
2013-01-08 17:33:00,34.5,29.6,29.98,SW,233,3.0,6.0,82,0.00,,SKC,0.00,VWS V14.01,2013-01-08 23:33:00,
2013-01-08 17:37:00,34.5,29.6,29.99,SW,227,5.0,7.0,82,0.00,,SKC,0.00,VWS V14.01,2013-01-08 23:37:00,
2013-01-08 17:45:00,34.2,29.6,29.99,SW,231,4.0,8.0,83,0.00,,SKC,0.00,VWS V14.01,2013-01-08 23:45:00,
2013-01-08 17:53:00,34.3,29.7,29.99,WSW,240,7.0,9.0,83,0.00,,SKC,0.00,VWS V14.01,2013-01-08 23:53:00,
2013-01-08 17:57:00,34.4,29.5,30.00,WSW,237,6.0,10.0,82,0.00,,SKC,0.00,VWS V14.01,2013-01-08 23:57:00,
2013-01-08 17:59:00,34.4,29.8,30.00,WSW,258,6.0,10.0,83,0.00,,SKC,0.00,VWS V14.01,2013-01-08 23:59:00,
2013-01-08 18:05:00,34.3,29.7,30.00,SW,227,4.0,8.0,83,0.00,,SKC,0.00,VWS V14.01,2013-01-09 00:05:00,
2013-01-08 18:13:00,34.4,29.8,30.01,SW,217,3.0,8.0,83,0.00,,SKC,0.00,VWS V14.01,2013-01-09 00:13:00,
2013-01-08 18:21:00,34.4,29.8,30.02,SSW,196,2.0,9.0,83,0.00,,SKC,0.00,VWS V14.01,2013-01-09 00:21:00,
2013-01-08 18:29:00,34.6,29.7,30.02,SSW,211,6.0,9.0,82,0.00,,SKC,0.00,VWS V14.01,2013-01-09 00:29:00,
2013-01-08 18:33:00,34.6,29.7,30.02,SW,214,5.0,9.0,82,0.00,,SKC,0.00,VWS V14.01,2013-01-09 00:33:00,
2013-01-08 18:37:00,34.6,29.7,30.02,SSW,209,6.0,10.0,82,0.00,,SKC,0.00,VWS V14.01,2013-01-09 00:37:00,
2013-01-08 18:41:00,34.6,29.7,30.02,SSW,211,6.0,10.0,82,0.00,,SKC,0.00,VWS V14.01,2013-01-09 00:41:00,
2013-01-08 18:45:00,34.6,29.7,30.02,SW,232,6.0,10.0,82,0.00,,SKC,0.00,VWS V14.01,2013-01-09 00:45:00,
2013-01-08 18:49:00,34.6,29.7,30.03,SSW,207,2.0,10.0,82,0.00,,SKC,0.00,VWS V14.01,2013-01-09 00:49:00,
2013-01-08 18:57:00,34.7,29.8,30.04,SW,223,2.0,13.0,82,0.00,,SKC,0.00,VWS V14.01,2013-01-09 00:57:00,
2013-01-08 19:05:00,34.6,29.7,30.04,SW,217,7.0,8.0,82,0.00,,SKC,0.00,VWS V14.01,2013-01-09 01:05:00,
2013-01-08 19:09:00,34.6,29.7,30.05,SW,236,3.0,8.0,82,0.00,,SKC,0.00,VWS V14.01,2013-01-09 01:09:00,
2013-01-08 19:13:00,34.6,29.7,30.05,South,187,5.0,8.0,82,0.00,,SKC,0.00,VWS V14.01,2013-01-09 01:13:00,
2013-01-08 19:21:00,34.5,29.6,30.06,WSW,254,6.0,10.0,82,0.00,,SKC,0.00,VWS V14.01,2013-01-09 01:21:00,
2013-01-08 19:25:00,34.6,29.7,30.06,SW,225,7.0,10.0,82,0.00,,SKC,0.00,VWS V14.01,2013-01-09 01:25:00,
2013-01-08 19:29:00,34.5,29.6,30.06,SW,216,2.0,10.0,82,0.00,,SKC,0.00,VWS V14.01,2013-01-09 01:29:00,
2013-01-08 19:37:00,34.0,29.4,30.07,SSW,207,3.0,8.0,83,0.00,,SKC,0.00,VWS V14.01,2013-01-09 01:37:00,
2013-01-08 19:41:00,33.9,29.3,30.07,SSW,209,3.0,8.0,83,0.00,,SKC,0.00,VWS V14.01,2013-01-09 01:41:00,
2013-01-08 19:49:00,33.5,29.2,30.08,SW,229,3.0,8.0,84,0.00,,SKC,0.00,VWS V14.01,2013-01-09 01:49:00,
2013-01-08 19:53:00,33.4,29.1,30.08,SSW,205,7.0,10.0,84,0.00,,SKC,0.00,VWS V14.01,2013-01-09 01:53:00,
2013-01-08 19:59:00,33.2,28.9,30.08,WSW,242,5.0,10.0,84,0.00,,SKC,0.00,VWS V14.01,2013-01-09 01:59:00,
2013-01-08 20:01:00,33.2,28.9,30.08,SW,227,5.0,7.0,84,0.00,,SKC,0.00,VWS V14.01,2013-01-09 02:01:00,
2013-01-08 20:05:00,33.2,28.9,30.08,SW,231,6.0,7.0,84,0.00,,SKC,0.00,VWS V14.01,2013-01-09 02:05:00,
2013-01-08 20:09:00,33.2,28.9,30.09,SW,228,4.0,9.0,84,0.00,,SKC,0.00,VWS V14.01,2013-01-09 02:09:00,
2013-01-08 20:17:00,33.2,28.9,30.09,SSW,211,5.0,9.0,84,0.00,,SKC,0.00,VWS V14.01,2013-01-09 02:17:00,
2013-01-08 20:21:00,33.0,28.7,30.09,WSW,238,5.0,9.0,84,0.00,,SKC,0.00,VWS V14.01,2013-01-09 02:21:00,
2013-01-08 20:25:00,32.9,28.6,30.10,SSW,203,4.0,9.0,84,0.00,,SKC,0.00,VWS V14.01,2013-01-09 02:25:00,
2013-01-08 20:34:00,33.1,29.1,30.10,WSW,251,5.0,7.0,85,0.00,,SKC,0.00,VWS V14.01,2013-01-09 02:34:00,
2013-01-08 20:42:00,33.3,29.0,30.10,WSW,245,4.0,8.0,84,0.00,,SKC,0.00,VWS V14.01,2013-01-09 02:42:00,
2013-01-08 20:46:00,33.3,29.0,30.10,SW,234,4.0,8.0,84,0.00,,SKC,0.00,VWS V14.01,2013-01-09 02:46:00,
2013-01-08 20:50:00,33.3,29.0,30.11,SSW,211,4.0,8.0,84,0.00,,SKC,0.00,VWS V14.01,2013-01-09 02:50:00,
2013-01-08 20:54:00,33.3,29.0,30.11,SW,227,2.0,8.0,84,0.00,,SKC,0.00,VWS V14.01,2013-01-09 02:54:00,
2013-01-08 20:58:00,33.2,28.9,30.11,SW,218,5.0,8.0,84,0.00,,SKC,0.00,VWS V14.01,2013-01-09 02:58:00,
2013-01-08 20:59:00,33.2,28.9,30.12,SW,214,4.0,9.0,84,0.00,,SKC,0.00,VWS V14.01,2013-01-09 02:59:00,
2013-01-08 21:02:00,33.2,28.9,30.11,SW,230,4.0,7.0,84,0.00,,SKC,0.00,VWS V14.01,2013-01-09 03:02:00,
2013-01-08 21:10:00,33.0,28.7,30.12,SW,234,3.0,8.0,84,0.00,,SKC,0.00,VWS V14.01,2013-01-09 03:10:00,
2013-01-08 21:18:00,32.8,28.5,30.12,SW,220,4.0,8.0,84,0.00,,SKC,0.00,VWS V14.01,2013-01-09 03:18:00,
2013-01-08 21:26:00,32.8,28.8,30.12,SSW,213,3.0,8.0,85,0.00,,SKC,0.00,VWS V14.01,2013-01-09 03:26:00,
2013-01-08 21:29:00,32.7,28.4,30.13,WSW,239,2.0,8.0,84,0.00,,SKC,0.00,VWS V14.01,2013-01-09 03:29:00,
2013-01-08 21:34:00,32.7,28.7,30.13,SW,236,4.0,6.0,85,0.00,,SKC,0.00,VWS V14.01,2013-01-09 03:34:00,
2013-01-08 21:42:00,32.8,28.8,30.14,WSW,238,8.0,10.0,85,0.00,,SKC,0.00,VWS V14.01,2013-01-09 03:42:00,
2013-01-08 21:46:00,32.9,28.9,30.14,SW,236,7.0,10.0,85,0.00,,SKC,0.00,VWS V14.01,2013-01-09 03:46:00,
2013-01-08 21:50:00,32.6,28.3,30.14,SW,229,4.0,10.0,84,0.00,,SKC,0.00,VWS V14.01,2013-01-09 03:50:00,
2013-01-08 21:58:00,32.6,28.6,30.14,WSW,240,3.0,10.0,85,0.00,,SKC,0.00,VWS V14.01,2013-01-09 03:58:00,
2013-01-08 21:59:00,32.5,28.5,30.15,SW,221,5.0,10.0,85,0.00,,SKC,0.00,VWS V14.01,2013-01-09 03:59:00,
2013-01-08 22:02:00,32.5,28.5,30.14,South,184,4.0,5.0,85,0.00,,SKC,0.00,VWS V14.01,2013-01-09 04:02:00,
2013-01-08 22:10:00,32.1,28.1,30.15,WSW,240,4.0,7.0,85,0.00,,SKC,0.00,VWS V14.01,2013-01-09 04:10:00,
2013-01-08 22:14:00,31.9,27.9,30.15,SW,228,2.0,7.0,85,0.00,,SKC,0.00,VWS V14.01,2013-01-09 04:14:00,
2013-01-08 22:22:00,31.7,27.7,30.15,SW,223,6.0,8.0,85,0.00,,SKC,0.00,VWS V14.01,2013-01-09 04:22:00,
2013-01-08 22:26:00,31.1,27.1,30.16,SSW,205,6.0,8.0,85,0.00,,SKC,0.00,VWS V14.01,2013-01-09 04:26:00,
2013-01-08 22:29:00,30.6,26.9,30.16,SSW,206,5.0,8.0,86,0.00,,SKC,0.00,VWS V14.01,2013-01-09 04:29:00,
2013-01-08 22:30:00,30.6,26.9,30.16,SSW,208,6.0,6.0,86,0.00,,SKC,0.00,VWS V14.01,2013-01-09 04:30:00,
2013-01-08 22:34:00,30.2,26.8,30.16,SSW,204,7.0,7.0,87,0.00,,SKC,0.00,VWS V14.01,2013-01-09 04:34:00,
2013-01-08 22:38:00,29.9,26.5,30.16,SSW,206,6.0,7.0,87,0.00,,SKC,0.00,VWS V14.01,2013-01-09 04:38:00,
2013-01-08 22:42:00,29.7,26.3,30.17,SSW,204,4.0,7.0,87,0.00,,SKC,0.00,VWS V14.01,2013-01-09 04:42:00,
2013-01-08 22:50:00,29.1,25.7,30.17,SSW,204,0.0,7.0,87,0.00,,SKC,0.00,VWS V14.01,2013-01-09 04:50:00,
2013-01-08 22:54:00,28.8,25.4,30.17,SSW,204,2.0,7.0,87,0.00,,SKC,0.00,VWS V14.01,2013-01-09 04:54:00,
2013-01-08 22:58:00,28.8,25.7,30.17,SSW,204,4.0,7.0,88,0.00,,SKC,0.00,VWS V14.01,2013-01-09 04:58:00,
2013-01-08 22:59:00,28.8,26.0,30.17,SSW,204,5.0,7.0,89,0.00,,SKC,0.00,VWS V14.01,2013-01-09 04:59:00,
2013-01-08 23:06:00,29.3,26.5,30.17,SSW,205,4.0,6.0,89,0.00,,SKC,0.00,VWS V14.01,2013-01-09 05:06:00,
2013-01-08 23:10:00,29.4,26.3,30.17,WSW,246,1.0,7.0,88,0.00,,SKC,0.00,VWS V14.01,2013-01-09 05:10:00,
2013-01-08 23:14:00,29.5,26.7,30.18,SSW,209,0.0,7.0,89,0.00,,SKC,0.00,VWS V14.01,2013-01-09 05:14:00,
2013-01-08 23:18:00,29.7,26.9,30.18,SSW,209,0.0,7.0,89,0.00,,SKC,0.00,VWS V14.01,2013-01-09 05:18:00,
2013-01-08 23:22:00,29.7,26.6,30.18,SSW,207,4.0,7.0,88,0.00,,SKC,0.00,VWS V14.01,2013-01-09 05:22:00,
2013-01-08 23:26:00,29.2,25.8,30.18,South,191,6.0,7.0,87,0.00,,SKC,0.00,VWS V14.01,2013-01-09 05:26:00,
2013-01-08 23:29:00,28.7,25.3,30.18,South,184,4.0,7.0,87,0.00,,SKC,0.00,VWS V14.01,2013-01-09 05:29:00,
2013-01-08 23:38:00,28.1,25.3,30.17,SSW,198,5.0,7.0,89,0.00,,SKC,0.00,VWS V14.01,2013-01-09 05:38:00,
2013-01-08 23:46:00,28.8,26.2,30.17,SSW,211,5.0,7.0,90,0.00,,SKC,0.00,VWS V14.01,2013-01-09 05:46:00,
2013-01-08 23:50:00,29.0,26.2,30.17,SSW,209,3.0,7.0,89,0.00,,SKC,0.00,VWS V14.01,2013-01-09 05:50:00,
2013-01-08 23:54:00,29.0,25.9,30.17,SSW,211,3.0,7.0,88,0.00,,SKC,0.00,VWS V14.01,2013-01-09 05:54:00,
2013-01-08 23:59:00,28.9,26.1,30.17,SW,217,3.0,7.0,89,0.00,,SKC,0.00,VWS V14.01,2013-01-09 05:59:00,